Location: Goheenville
(40.9070°N, 79.3720°W)
Time: 00:43:53
(UTC-04:00)

Meteor 2-10 Rocket - Visible Passes

Search period start: 22 April 2018 00:00
Search period end: 02 May 2018 00:00
Orbit: 735 x 884 km, 81.2° (Epoch: 21 April)

Date Brightness Start Highest point End Pass type
(mag) Time Alt. Az. Time Alt. Az. Time Alt. Az.
22 Apr 4.7 20:56:02 10° SE 21:00:42 27° E 21:05:27 10° NNE visible
22 Apr 4.9 22:37:06 10° SW 22:42:29 41° WNW 22:47:59 10° N visible
23 Apr 5.1 20:32:40 10° SE 20:36:37 19° E 20:40:35 10° NE visible
23 Apr 4.3 22:12:29 10° SSW 22:18:07 57° WNW 22:23:52 10° N visible
24 Apr 3.9 21:48:03 10° SSW 21:53:47 79° W 21:59:39 10° N visible
24 Apr 6.6 23:35:16 10° WNW 23:36:50 11° WNW 23:38:25 10° NW visible
25 Apr 3.7 21:23:47 10° S 21:29:31 77° E 21:35:21 10° NNE visible
25 Apr 6.4 23:08:54 10° W 23:12:15 15° WNW 23:15:37 10° NNW visible
26 Apr 3.9 20:59:41 10° S 21:05:17 55° E 21:10:58 10° NNE visible
26 Apr 6.1 22:43:25 10° WSW 22:47:43 21° WNW 22:52:03 10° NNW visible
27 Apr 4.3 20:35:46 10° SSE 20:41:06 40° E 20:46:28 10° NNE visible
27 Apr 5.7 22:18:18 10° SW 22:23:14 28° WNW 22:28:14 10° NNW visible
28 Apr 5.2 21:53:26 10° SW 21:58:48 39° WNW 22:04:14 10° N visible
29 Apr 4.6 21:28:47 10° SSW 21:34:25 53° WNW 21:40:08 10° N visible
30 Apr 4.1 21:04:19 10° SSW 21:10:05 73° W 21:15:56 10° N visible
30 Apr 7.0 22:52:38 10° WNW 22:53:11 10° WNW 22:53:44 10° NW visible
01 May 3.8 20:40:00 10° S 20:45:48 82° E 20:51:38 10° NNE visible
01 May 6.7 22:25:32 10° W 22:28:35 14° WNW 22:31:40 10° NNW visible
